Temp
-10 -10 -11 -11 -11 -11 -11 -11 -11 -11 -11 -11 -11 -11 -11 -11 -11 -10 -11 -11 -11 -11 -11 -11 -11 -12 -12 -12 -12 -13 -13 -13 -13 -13 -14 -14 -14 -14 -15 -15 -15 -15 -15
-11 -11 -11 -11 -11 -11 -11 -11 -11 -11 -11 -11 -11 -11 -11 -11 -11 -10 -11 -11 -11 -11 -11 -11 -12 -12 -12 -13 -13 -13 -13 -13 -14 -14 -14 -15 -15 -16 -16 -16 -16 -16 -16
-11 -11 -11 -11 -11 -11 -11 -11 -11 -11 -11 -11 -11 -11 -11 -11 -10 -11 -11 -11 -11 -11 -12 -12 -12 -12 -13 -13 -13 -13 -14 -14 -14 -15 -15 -16 -16 -16 -16 -16 -16 -16 -16
-11 -11 -11 -11 -11 -11 -11 -11 -11 -11 -12 -11 -11 -11 -11 -11 -11 -11 -11 -11 -11 -11 -12 -12 -12 -13 -13 -13 -13 -14 -14 -14 -15 -15 -16 -16 -16 -16 -16 -16 -16 -16 -16
-11 -11 -11 -11 -11 -11 -11 -11 -11 -12 -11 -11 -11 -11 -11 -11 -11 -11 -11 -11 -11 -12 -12 -12 -12 -13 -13 -14 -14 -14 -15 -15 -15 -16 -16 -16 -16 -16 -16 -16 -16 -16 -17
-11 -11 -11 -11 -11 -11 -11 -11 -11 -12 -12 -12 -11 -11 -11 -11 -11 -11 -11 -12 -12 -12 -13 -13 -13 -14 -14 -14 -14 -15 -15 -15 -16 -16 -16 -16 -16 -16 -16 -16 -16 -17 -17
-11 -11 -11 -11 -11 -11 -11 -11 -11 -11 -12 -12 -12 -12 -12 -12 -12 -12 -12 -12 -12 -13 -13 -14 -14 -14 -14 -15 -15 -15 -16 -16 -16 -17 -17 -17 -17 -16 -17 -17 -17 -17 -17
-11 -11 -11 -11 -11 -11 -11 -11 -11 -11 -12 -12 -12 -12 -12 -12 -12 -12 -13 -13 -13 -14 -14 -14 -14 -15 -15 -15 -16 -16 -17 -17 -17 -17 -17 -17 -17 -17 -17 -17 -17 -17 -17
-11 -11 -11 -11 -11 -11 -11 -11 -11 -11 -11 -12 -12 -12 -12 -13 -13 -13 -13 -14 -14 -14 -14 -15 -15 -15 -15 -16 -16 -17 -17 -17 -18 -18 -18 -18 -18 -18 -18 -18 -18 -17 -17
-11 -11 -11 -11 -11 -11 -11 -11 -11 -11 -11 -12 -12 -12 -12 -13 -13 -14 -14 -14 -15 -15 -15 -15 -15 -16 -16 -17 -17 -17 -18 -18 -18 -18 -18 -18 -18 -18 -18 -17 -17 -17 -17
-11 -11 -11 -11 -11 -11 -11 -11 -12 -12 -12 -12 -12 -12 -12 -13 -13 -14 -14 -15 -15 -15 -16 -16 -16 -17 -17 -17 -18 -18 -18 -18 -18 -18 -18 -18 -18 -17 -17 -17 -17 -17 -17
-11 -11 -11 -11 -11 -12 -12 -12 -12 -12 -12 -12 -12 -12 -12 -13 -13 -14 -14 -15 -15 -16 -16 -16 -17 -17 -17 -18 -18 -18 -18 -18 -18 -18 -18 -18 -18 -18 -18 -17 -17 -17 -17
-12 -12 -12 -12 -12 -12 -12 -12 -12 -12 -12 -12 -12 -13 -13 -13 -14 -14 -15 -15 -15 -16 -16 -16 -17 -17 -17 -18 -18 -18 -18 -18 -18 -18 -18 -18 -18 -18 -17 -17 -17 -17 -18
-12 -12 -12 -12 -12 -12 -12 -12 -12 -12 -12 -13 -13 -13 -14 -14 -15 -15 -16 -16 -16 -16 -16 -16 -17 -17 -17 -18 -18 -18 -18 -18 -18 -18 -18 -18 -18 -18 -18 -18 -18 -19 -19
-12 -12 -12 -12 -12 -12 -12 -12 -12 -12 -13 -13 -14 -14 -14 -15 -16 -16 -16 -16 -16 -17 -17 -17 -17 -17 -18 -18 -18 -18 -18 -18 -19 -19 -18 -18 -18 -18 -19 -19 -19 -20 -20
-12 -12 -12 -12 -12 -12 -12 -12 -13 -13 -13 -14 -14 -15 -15 -16 -16 -16 -16 -16 -17 -17 -17 -18 -18 -18 -18 -19 -19 -19 -19 -19 -19 -19 -19 -19 -19 -19 -20 -20 -20 -21 -22
-12 -12 -12 -12 -12 -13 -13 -13 -13 -14 -14 -15 -15 -15 -16 -16 -16 -17 -17 -17 -17 -17 -18 -18 -18 -18 -19 -19 -19 -19 -19 -19 -19 -19 -19 -20 -20 -20 -21 -21 -22 -23 -23
-13 -13 -13 -13 -13 -13 -13 -14 -14 -14 -15 -15 -15 -16 -16 -17 -17 -17 -17 -17 -18 -18 -19 -19 -19 -20 -20 -19 -19 -19 -20 -20 -20 -20 -20 -20 -21 -21 -22 -23 -24 -24 -26
-13 -13 -13 -13 -13 -14 -14 -14 -15 -15 -15 -16 -16 -16 -17 -17 -18 -17 -18 -18 -18 -19 -19 -19 -20 -20 -20 -20 -20 -20 -20 -20 -21 -21 -21 -21 -21 -22 -23 -24 -25 -26 -28
-13 -14 -13 -14 -14 -14 -14 -15 -15 -16 -16 -16 -16 -17 -17 -17 -18 -18 -19 -19 -19 -19 -19 -19 -20 -20 -20 -20 -20 -20 -21 -21 -21 -21 -22 -22 -22 -23 -25 -25 -26 -28 -30
-14 -14 -14 -14 -14 -14 -15 -15 -16 -16 -16 -17 -18 -17 -18 -18 -18 -19 -20 -20 -20 -20 -20 -21 -20 -20 -21 -21 -21 -21 -21 -21 -21 -22 -22 -23 -23 -25 -26 -26 -28 -30 -31
-14 -14 -14 -15 -15 -16 -16 -16 -17 -17 -18 -18 -18 -18 -18 -18 -18 -20 -20 -21 -21 -21 -21 -21 -21 -21 -21 -21 -21 -21 -21 -22 -22 -22 -23 -24 -25 -26 -27 -28 -30 -30 -32
-15 -15 -16 -16 -16 -17 -17 -18 -18 -18 -18 -18 -18 -18 -18 -19 -20 -21 -21 -21 -21 -21 -21 -21 -21 -21 -21 -21 -21 -22 -22 -22 -22 -23 -24 -26 -27 -27 -28 -29 -30 -32 -33
-16 -17 -17 -17 -17 -18 -18 -18 -18 -18 -18 -18 -18 -18 -19 -19 -21 -21 -21 -21 -21 -21 -21 -21 -21 -21 -21 -21 -22 -22 -22 -23 -24 -25 -26 -27 -28 -28 -29 -30 -31 -32 -34
-18 -17 -17 -18 -18 -18 -18 -18 -18 -18 -18 -18 -18 -19 -19 -20 -21 -21 -21 -21 -21 -21 -21 -21 -21 -22 -22 -22 -22 -23 -23 -24 -25 -26 -28 -29 -29 -29 -31 -31 -32 -33 -34
-18 -18 -18 -18 -18 -18 -18 -18 -18 -18 -18 -18 -19 -19 -20 -21 -21 -21 -21 -21 -21 -21 -22 -22 -22 -22 -22 -23 -23 -24 -24 -25 -26 -27 -29 -29 -30 -31 -31 -32 -32 -34 -35
Height
5891 5891 5891 5890 5889 5888 5887 5885 5884 5882 5879 5877 5874 5872 5870 5868 5865 5863 5860 5857 5854 5850 5847 5843 5840 5835 5830 5826 5821 5816 5811 5806 5800 5795 5790 5785 5780 5775 5771 5767 5763 5759 5755
5890 5890 5889 5888 5887 5886 5884 5883 5880 5878 5876 5873 5871 5869 5867 5864 5862 5858 5855 5852 5849 5846 5842 5838 5834 5829 5825 5820 5815 5810 5804 5799 5793 5787 5781 5776 5771 5767 5764 5760 5755 5751 5746
5888 5888 5887 5886 5885 5883 5881 5879 5877 5875 5873 5870 5868 5865 5862 5860 5857 5854 5850 5847 5845 5841 5837 5833 5828 5824 5819 5813 5808 5802 5796 5790 5785 5779 5773 5768 5763 5759 5755 5750 5746 5742 5737
5886 5885 5884 5883 5882 5880 5878 5876 5874 5872 5868 5865 5863 5860 5858 5855 5852 5849 5845 5841 5837 5834 5830 5826 5821 5816 5811 5806 5799 5794 5788 5783 5777 5771 5766 5761 5757 5752 5747 5742 5737 5732 5727
5883 5882 5881 5880 5879 5877 5875 5872 5870 5867 5864 5861 5858 5855 5852 5849 5846 5842 5838 5834 5830 5826 5822 5818 5813 5808 5803 5797 5791 5785 5779 5773 5767 5762 5757 5753 5748 5743 5737 5732 5726 5721 5716
5878 5877 5876 5875 5873 5871 5870 5868 5866 5862 5859 5855 5851 5849 5845 5842 5838 5834 5830 5826 5822 5819 5815 5809 5804 5799 5793 5787 5781 5775 5770 5763 5758 5753 5748 5744 5739 5733 5727 5722 5716 5710 5704
5873 5872 5871 5869 5867 5866 5864 5862 5860 5858 5854 5849 5846 5842 5838 5834 5831 5827 5823 5818 5814 5810 5805 5801 5795 5789 5783 5777 5771 5766 5759 5753 5748 5743 5739 5735 5729 5722 5716 5710 5704 5697 5690
5870 5868 5866 5863 5861 5860 5857 5855 5853 5851 5848 5844 5840 5836 5832 5829 5824 5819 5814 5810 5806 5801 5797 5792 5786 5780 5774 5768 5762 5755 5749 5744 5738 5733 5728 5722 5716 5710 5703 5697 5690 5683 5674
5865 5863 5860 5858 5856 5854 5852 5849 5847 5844 5842 5838 5834 5831 5825 5821 5816 5811 5806 5802 5797 5792 5787 5783 5777 5771 5764 5758 5751 5745 5739 5733 5728 5723 5718 5712 5705 5698 5691 5682 5673 5664 5654
5857 5856 5854 5852 5850 5848 5846 5843 5841 5838 5835 5832 5828 5823 5819 5814 5809 5804 5798 5792 5788 5782 5776 5770 5765 5759 5753 5747 5740 5735 5729 5723 5718 5713 5708 5700 5692 5683 5674 5666 5656 5646 5633
5850 5848 5846 5845 5843 5840 5838 5836 5833 5830 5827 5824 5820 5816 5812 5807 5802 5797 5791 5785 5778 5773 5767 5760 5755 5749 5742 5735 5730 5724 5719 5713 5708 5702 5694 5685 5676 5667 5657 5648 5638 5626 5612
5843 5841 5839 5837 5834 5832 5830 5827 5824 5820 5818 5814 5811 5807 5804 5801 5796 5791 5785 5778 5769 5761 5755 5750 5743 5737 5730 5723 5718 5713 5708 5702 5695 5688 5680 5671 5662 5652 5641 5630 5617 5603 5589
5834 5833 5830 5828 5826 5824 5821 5818 5815 5812 5809 5805 5800 5797 5795 5791 5787 5782 5777 5771 5762 5754 5747 5740 5733 5726 5719 5713 5708 5702 5696 5689 5681 5673 5665 5656 5645 5634 5622 5608 5595 5581 5565
5826 5825 5823 5820 5818 5814 5810 5807 5805 5802 5798 5794 5790 5787 5784 5780 5776 5771 5766 5760 5753 5744 5736 5729 5722 5715 5708 5702 5696 5690 5682 5676 5667 5659 5650 5639 5628 5615 5602 5587 5572 5556 5538
5814 5813 5812 5810 5807 5805 5801 5798 5794 5791 5787 5783 5780 5777 5773 5770 5765 5760 5755 5748 5741 5734 5727 5717 5709 5703 5697 5690 5684 5677 5670 5662 5653 5644 5635 5623 5610 5596 5580 5565 5549 5531 5513
5805 5803 5801 5798 5796 5793 5791 5787 5783 5779 5776 5772 5769 5766 5762 5759 5754 5749 5743 5736 5728 5722 5715 5705 5699 5693 5686 5678 5672 5665 5657 5648 5640 5630 5619 5606 5592 5576 5560 5545 5527 5508 5490
5794 5793 5790 5787 5785 5782 5779 5775 5771 5768 5764 5761 5758 5754 5751 5747 5742 5737 5732 5725 5717 5708 5700 5694 5687 5681 5675 5668 5660 5652 5645 5635 5627 5615 5603 5589 5574 5557 5540 5521 5505 5488 5468
5780 5780 5778 5775 5773 5769 5766 5763 5759 5756 5752 5749 5746 5742 5739 5734 5729 5724 5719 5712 5705 5696 5688 5681 5675 5668 5663 5655 5647 5639 5630 5620 5611 5600 5585 5572 5556 5539 5521 5505 5487 5467 5448
5767 5766 5764 5762 5760 5757 5754 5750 5747 5744 5741 5737 5733 5730 5726 5721 5716 5711 5704 5698 5691 5685 5678 5670 5663 5658 5651 5644 5635 5623 5615 5603 5591 5584 5568 5553 5537 5522 5506 5488 5470 5451 5435
5755 5753 5751 5749 5747 5744 5741 5738 5735 5733 5729 5725 5721 5718 5713 5707 5702 5695 5689 5684 5677 5671 5665 5659 5652 5646 5638 5630 5622 5614 5599 5588 5576 5563 5552 5536 5521 5507 5490 5473 5457 5439 5426
5741 5739 5738 5736 5734 5731 5728 5726 5723 5720 5717 5714 5709 5705 5699 5693 5687 5681 5676 5669 5663 5658 5652 5647 5640 5634 5626 5618 5610 5600 5590 5577 5564 5548 5533 5522 5509 5493 5476 5458 5442 5430 5419
5728 5727 5725 5723 5721 5719 5716 5714 5711 5708 5705 5700 5696 5691 5685 5679 5673 5668 5662 5656 5651 5646 5640 5634 5628 5621 5613 5605 5595 5587 5576 5566 5555 5543 5522 5507 5493 5478 5462 5447 5434 5422 5413
5714 5713 5712 5710 5708 5705 5703 5701 5699 5695 5691 5687 5682 5677 5671 5666 5660 5654 5647 5642 5639 5633 5628 5623 5616 5609 5600 5590 5581 5570 5559 5549 5538 5524 5513 5494 5480 5465 5451 5437 5426 5415 5407
5701 5700 5699 5698 5696 5694 5691 5688 5685 5681 5677 5673 5667 5662 5657 5652 5646 5640 5634 5628 5624 5620 5614 5610 5604 5595 5586 5577 5565 5556 5545 5533 5519 5509 5496 5485 5470 5455 5440 5428 5418 5409 5402
5688 5688 5686 5685 5683 5680 5677 5674 5671 5667 5662 5657 5652 5648 5643 5639 5632 5626 5621 5615 5609 5605 5599 5593 5588 5581 5571 5562 5553 5542 5531 5519 5506 5493 5481 5469 5458 5448 5432 5419 5408 5401 5395
5676 5674 5673 5671 5668 5666 5662 5660 5655 5651 5647 5642 5638 5632 5628 5624 5618 5612 5607 5602 5596 5590 5584 5577 5570 5563 5556 5547 5538 5527 5516 5503 5492 5482 5469 5459 5445 5434 5426 5414 5402 5394 5389
Wind_Speed
4 3 3 3 4 6 7 9 10 12 14 16 18 20 21 22 24 26 28 30 32 33 34 35 35 37 39 40 41 42 43 47 49 49 50 49 47 43 39 37 38 39 40
3 5 6 7 8 9 10 11 12 14 16 18 20 21 22 23 24 27 29 33 35 35 35 36 38 40 41 40 42 47 49 49 50 50 51 47 43 40 39 40 43 45 46
7 8 10 11 12 13 14 15 15 17 19 21 23 24 24 24 25 27 30 33 36 37 38 40 41 42 43 46 50 51 49 48 51 51 48 44 42 42 43 45 46 48 48
12 13 14 14 15 17 18 19 19 20 22 24 25 26 28 28 29 29 31 35 36 39 41 42 43 44 47 50 51 51 50 50 54 50 45 43 44 46 47 49 51 51 51
17 18 17 17 19 20 22 23 22 23 24 25 27 28 30 31 32 34 35 37 39 39 40 42 47 49 51 52 52 52 50 56 52 46 44 45 48 50 52 54 55 55 57
21 21 20 21 23 24 25 25 25 27 27 28 30 31 33 34 36 38 39 40 41 43 42 45 50 52 53 54 53 49 56 54 46 45 47 49 51 53 55 56 57 59 62
25 24 23 24 27 27 27 27 28 29 30 32 33 33 35 37 39 40 41 42 44 43 45 50 54 55 54 55 50 54 56 48 46 48 49 51 55 57 58 60 62 66 69
27 27 27 28 29 28 29 29 30 32 33 35 36 36 38 40 41 42 44 44 44 45 50 55 55 53 55 51 52 57 51 48 50 50 52 55 59 61 62 64 67 70 72
30 30 31 30 31 31 31 32 34 34 36 38 39 39 39 41 42 44 45 46 46 49 53 55 57 54 56 56 57 56 51 51 52 52 55 59 60 60 62 65 67 71 76
32 32 32 33 32 33 35 35 37 38 38 40 42 42 42 42 43 45 46 47 49 54 56 57 59 58 57 59 58 55 51 52 52 55 59 60 61 63 66 70 73 78 82
35 34 34 35 35 35 36 38 39 40 41 43 44 46 45 44 46 47 48 50 53 55 58 59 60 59 60 60 59 53 52 52 55 59 62 64 65 69 72 75 80 86 90
36 36 36 36 38 38 40 41 42 43 45 46 48 49 49 48 49 48 49 51 55 57 60 63 64 62 61 61 54 53 54 56 59 62 65 67 70 74 76 80 87 94 97
40 39 40 39 40 40 42 44 46 47 48 50 51 52 50 49 48 49 50 52 56 60 64 67 68 64 62 56 54 56 58 61 63 65 68 72 75 78 85 89 93 95 99
43 42 42 43 43 43 45 47 49 51 53 53 53 51 50 49 47 48 50 54 59 62 68 73 71 63 59 56 57 59 60 64 65 69 72 75 81 85 89 93 97 102 103
43 44 46 46 47 48 49 50 51 53 55 56 54 51 51 48 48 51 53 59 63 65 73 70 64 59 58 57 58 59 64 64 69 72 76 81 84 90 95 99 102 103 104
47 46 48 50 49 51 53 53 55 56 56 55 52 51 51 48 50 54 57 62 66 70 71 63 59 57 56 56 59 63 64 68 71 76 80 85 90 95 100 102 105 104 102
49 50 50 53 53 54 56 56 57 57 56 53 52 52 50 50 53 57 61 64 68 72 62 58 57 55 54 57 60 63 66 71 76 80 84 91 96 101 105 106 102 102 102
52 53 53 54 56 57 58 58 58 56 53 52 52 51 51 54 59 62 63 67 70 65 58 56 54 51 54 58 62 66 70 76 80 83 90 96 100 105 104 99 102 101 85
55 54 55 56 58 58 58 57 56 54 52 52 52 52 55 60 62 65 66 69 67 61 56 55 53 53 57 60 65 71 75 80 85 89 95 100 104 103 98 99 98 86 71
56 56 56 59 59 58 56 56 54 52 52 52 54 55 59 65 66 68 67 67 60 55 55 56 54 57 61 66 69 72 79 84 89 94 98 102 102 98 97 98 93 74 64
58 58 57 57 57 56 52 53 51 51 52 56 56 61 66 67 72 69 67 61 56 55 57 58 56 60 64 70 72 76 81 87 92 97 100 102 98 94 96 95 77 63 56
57 55 54 51 54 57 52 48 50 53 54 58 64 68 70 74 71 64 59 57 54 58 57 59 60 64 68 73 74 79 84 89 93 97 100 96 92 93 93 82 68 59 50
51 52 54 53 50 46 55 57 59 59 62 65 69 73 77 68 62 60 58 55 57 59 60 61 65 66 71 75 78 82 87 92 95 97 92 88 90 90 86 72 62 52 45
49 50 50 49 51 52 50 52 57 63 68 72 74 75 68 62 60 59 57 57 59 61 61 63 68 69 73 77 81 85 90 94 95 89 86 85 86 86 78 67 59 47 40
51 51 48 50 51 53 59 65 68 71 69 70 70 65 60 61 59 58 57 59 62 62 64 67 68 71 74 79 83 88 91 93 89 83 81 81 82 78 69 64 55 45 37
50 53 56 57 59 64 65 69 69 67 68 67 64 63 63 60 55 58 59 62 63 65 67 69 70 73 77 81 84 87 88 84 80 80 78 79 77 72 65 60 52 40 35
Wind_Direction
174 207 249 286 301 312 317 319 323 324 322 319 319 323 326 327 329 330 329 326 325 323 321 320 320 318 317 319 320 321 320 319 317 314 315 315 315 313 312 313 313 312 311
263 279 294 299 303 304 307 309 309 310 311 312 314 318 319 322 324 324 325 325 323 321 320 319 319 318 320 320 320 321 320 318 316 314 315 314 312 312 313 312 312 311 309
279 289 289 293 296 300 300 301 305 307 307 307 311 312 312 315 316 317 320 324 324 321 320 320 320 319 318 319 319 319 317 313 317 315 313 311 310 310 310 310 310 309 308
285 288 293 295 297 297 298 299 302 303 303 305 307 309 310 312 312 311 313 317 320 320 318 318 317 315 317 317 316 315 314 314 316 313 310 309 309 310 310 310 309 306 303
280 284 286 290 292 293 294 297 299 298 300 304 306 306 306 306 307 306 305 307 310 313 313 313 313 313 314 316 316 314 313 313 313 310 309 310 311 311 310 309 307 304 302
276 279 283 286 285 287 291 294 295 297 300 302 303 303 303 305 305 305 304 307 310 310 311 313 314 315 316 317 314 310 315 313 309 309 309 310 310 310 309 308 306 304 301
274 277 280 280 281 286 288 290 295 297 299 299 301 302 303 303 303 303 304 305 307 309 310 314 316 317 316 315 310 312 314 308 307 308 309 311 311 310 308 306 305 304 304
275 278 277 278 283 285 287 291 292 294 297 298 300 302 302 302 303 303 303 305 307 309 311 315 316 316 318 312 310 313 310 307 307 308 310 312 313 311 307 304 304 304 304
275 275 278 280 283 286 287 288 291 293 295 298 300 301 301 301 301 301 303 304 307 309 314 316 318 315 316 312 311 312 308 307 307 309 311 311 310 308 306 306 307 308 309
271 274 276 279 281 285 287 289 291 293 296 297 298 300 301 299 298 298 300 301 307 313 315 317 317 316 313 312 311 309 306 307 307 308 309 310 309 309 310 310 309 311 313
271 274 277 280 282 283 285 287 289 291 293 294 296 298 298 297 297 297 300 303 310 314 316 316 315 313 312 311 310 309 307 305 306 309 311 310 311 312 310 312 313 314 313
273 275 276 278 280 281 283 285 288 290 292 294 295 296 296 296 293 294 297 304 312 314 317 316 315 314 312 311 309 307 307 308 310 312 311 312 313 314 313 314 313 314 315
272 273 275 276 278 281 284 286 289 291 292 293 294 294 293 291 292 293 297 306 310 312 317 314 313 312 311 309 309 309 309 311 312 312 312 314 314 313 313 315 316 318 318
272 275 276 278 280 281 283 284 286 289 289 290 292 291 290 290 292 297 304 307 309 311 315 313 311 309 309 306 307 308 309 312 312 313 315 315 315 318 319 319 321 321 320
269 272 275 277 280 281 282 283 285 286 287 289 290 290 288 290 295 300 304 308 311 314 314 310 309 308 310 308 308 310 311 312 313 314 316 318 321 322 322 323 322 322 321
271 272 274 275 276 278 280 283 284 286 287 289 289 287 288 292 298 302 305 311 312 311 311 309 308 309 309 306 308 311 313 313 315 318 319 322 323 324 324 324 324 324 324
270 272 271 274 276 278 281 282 284 286 287 288 286 285 288 294 301 304 307 305 311 310 309 309 309 309 308 308 312 313 314 315 318 320 322 324 325 325 326 327 326 327 326
269 270 272 274 275 277 279 282 284 285 286 284 284 286 291 297 302 303 304 309 310 308 308 310 310 309 310 312 314 315 316 319 320 323 326 327 326 327 328 328 328 328 326
269 270 271 273 276 278 281 283 284 285 283 283 285 287 293 299 299 305 306 309 309 308 308 310 308 310 313 314 316 317 320 321 324 327 327 327 329 329 328 330 330 329 327
268 270 271 273 276 278 280 283 284 282 282 283 285 290 296 296 302 306 308 309 307 309 309 309 308 312 313 315 316 319 321 325 326 326 326 329 329 328 330 330 331 329 328
269 272 275 276 279 280 281 281 280 279 283 284 289 292 294 301 303 305 306 306 307 308 306 308 309 310 312 315 317 320 323 325 326 325 328 329 329 330 332 332 330 329 327
272 273 275 276 281 281 278 277 282 282 284 287 289 293 297 299 306 305 305 304 303 305 305 306 306 308 311 315 317 320 323 325 323 326 327 328 330 332 333 332 330 329 325
272 275 277 278 275 273 279 279 281 282 284 288 293 295 298 304 306 303 301 301 298 302 302 304 304 307 312 315 318 321 323 323 324 326 328 329 331 333 334 331 331 327 321
273 276 277 274 275 277 276 277 281 285 289 294 294 295 300 303 302 300 299 298 297 299 300 301 304 308 313 316 319 321 321 321 326 327 328 331 332 333 333 332 330 324 316
275 274 274 275 274 273 274 278 281 285 290 294 296 299 301 300 299 297 294 295 297 298 299 300 304 310 314 318 320 320 321 324 327 327 328 331 333 334 332 333 329 322 314
276 276 280 281 280 280 283 286 288 290 291 295 296 299 300 300 295 292 293 294 295 297 299 302 308 312 317 318 318 320 324 327 327 327 328 330 333 332 333 333 328 319 313